Location: Leuk
(46.3174°N, 7.6341°E)
Time: 16:21:20
(UTC+00:00)

H-2A R/B - Pass Details

Date: 09 March 2021
Orbit: 577 x 654 km, 98.5° (Epoch: 15 April)

Event Time Altitude Azimuth Distance (km) Brightness Sun altitude
Rises 05:12:17 0° 202° (SSW) 2,856 5.2 -8.0°
Reaches altitude 10° 05:15:01 10° 221° (SW) 1,943 4.2 -7.5°
Maximum altitude 05:18:01 19° 266° (W) 1,441 3.3 -7.0°
Drops below altitude 10° 05:21:01 10° 312° (NW) 1,926 4.2 -6.5°
Sets 05:23:43 0° 331° (NNW) 2,822 5.2 -6.0°
